Location: *
(2.5500°S, 65.9667°W)
Time: 12:06:12
(UTC+00:00)

H-2A R/B - Visible Passes

Search period start: 29 May 2022 00:00
Search period end: 08 June 2022 00:00
Orbit: 526 x 648 km, 98.3° (Epoch: 28 May)

Date Brightness Start Highest point End Pass type
(mag) Time Alt. Az. Time Alt. Az. Time Alt. Az.
29 May 5.4 00:48:58 12° NNW 00:48:58 12° NNW 00:49:19 10° NNW visible
30 May 5.5 00:56:11 11° NNW 00:56:11 11° NNW 00:56:23 10° NNW visible
06 Jun 5.1 00:10:10 10° NNE 00:10:10 10° NNE 00:10:13 10° NNE visible
07 Jun 5.1 00:17:22 11° NNE 00:17:22 11° NNE 00:17:33 10° NNE visible
